Weather History for KMWH - May, 2013

Change the Weather History Date:

Wednesday, May 22, 2013

  Actual Average Record
Temperature  
Mean Temperature 49 °F 61 °F  
Max Temperature 56 °F 75 °F 91 °F (2001)
Min Temperature 41 °F 47 °F 35 °F (1986)
Degree Days  
Heating Degree Days 16 5  
Month to date heating degree days 89 172  
Since 1 July heating degree days 5197 5789  
Cooling Degree Days 0 1  
Month to date cooling degree days 50 12  
Year to date cooling degree days 50 13  
Moisture  
Dew Point 39 °F    
Average Humidity 68    
Maximum Humidity 89    
Minimum Humidity 46    
Precipitation  
Precipitation 0.01 in 0.02 in 0.16 in (2006)
Month to date precipitation 0.12 0.42  
Year to date precipitation 1.50 3.84  
Sea Level Pressure  
Sea Level Pressure 29.88 in    
Wind  
Wind Speed 12 mph (SE)    
Max Wind Speed 21 mph    
Max Gust Speed 26 mph    
Visibility 10 miles    
Events      
T = Trace of Precipitation, MM = Missing Value Source: NWS Daily Summary

Daily Weather History Graph

Daily Weather History Graph

Search for Another Location

Airport or City:

Trip Planner

Search our weather history database for the weather conditions in past years. The results will help you decide how hot, cold, wet, or windy it might be!

Date:

Astronomy

May. 22, 2013 Rise Set
Actual Time 5:13 AM PDT 8:35 PM PDT
Civil Twilight 4:35 AM PDT 9:13 PM PDT
Nautical Twilight 3:46 AM PDT 10:02 PM PDT
Astronomical Twilight 2:43 AM PDT 11:06 PM PDT
Moon 5:55 PM PDT (5/22) 3:31 AM PDT (5/22)
Length of Visible Light 16h 37m
Length of Day
15h 22m
Waxing Gibbous, 92% of the Moon is Illuminated
May 22
Waxing Gibbous
May 24
Full
May 31
Last Quarter
Jun 8
New
Jun 16
First Quarter

Hourly Weather History & Observations

Time (PDT) Temp. Windchill Dew Point Humidity Pressure Visibility Wind Dir Wind Speed Gust Speed Precip Events Conditions
12:41 AM 46.4 °F 42.4 °F 41.0 °F 81% 29.76 in 10.0 mi ESE 8.1 mph - N/A   Overcast
12:52 AM 46.9 °F - 41.0 °F 80% 29.77 in 10.0 mi East 5.8 mph - N/A   Overcast
1:40 AM 46.4 °F 42.9 °F 42.8 °F 87% 29.76 in 10.0 mi ESE 6.9 mph - N/A   Overcast
1:52 AM 46.9 °F - 43.0 °F 86% 29.76 in 10.0 mi SE 11.5 mph - N/A   Overcast
2:07 AM 46.4 °F 41.5 °F 44.6 °F 93% 29.76 in 10.0 mi SSE 10.4 mph - N/A   Overcast
2:27 AM 46.4 °F 40.4 °F 42.8 °F 87% 29.76 in 10.0 mi SSE 13.8 mph - N/A   Overcast
2:52 AM 46.0 °F 39.6 °F 42.1 °F 86% 29.78 in 10.0 mi SSE 15.0 mph - N/A   Overcast
3:24 AM 44.6 °F 37.4 °F 42.8 °F 93% 29.78 in 10.0 mi SE 16.1 mph 19.6 mph N/A   Overcast
3:52 AM 44.1 °F 37.7 °F 41.0 °F 89% 29.79 in 10.0 mi SSE 12.7 mph - N/A   Overcast
4:42 AM 44.6 °F 37.4 °F 39.2 °F 81% 29.78 in 10.0 mi SSE 16.1 mph - 0.00 in   Overcast
4:50 AM 44.6 °F 38.1 °F 39.2 °F 81% 29.78 in 10.0 mi SE 13.8 mph - 0.00 in   Overcast
4:52 AM 44.1 °F 38.1 °F 39.9 °F 85% 29.79 in 10.0 mi SE 11.5 mph - 0.00 in   Overcast
5:01 AM 44.6 °F 38.8 °F 39.2 °F 81% 29.79 in 10.0 mi SSE 11.5 mph - N/A   Overcast
5:52 AM 43.0 °F 35.7 °F 39.0 °F 86% 29.80 in 10.0 mi SSE 15.0 mph - N/A   Overcast
6:52 AM 41.0 °F 33.5 °F 37.9 °F 89% 29.83 in 10.0 mi SE 13.8 mph - N/A   Overcast
7:52 AM 43.0 °F 36.0 °F 37.9 °F 82% 29.84 in 10.0 mi SSE 13.8 mph - N/A   Overcast
8:05 AM 42.8 °F 35.8 °F 37.4 °F 81% 29.83 in 10.0 mi SE 13.8 mph - N/A   Overcast
8:52 AM 44.1 °F 37.4 °F 37.0 °F 76% 29.86 in 10.0 mi SSE 13.8 mph - N/A   Overcast
9:08 AM 44.6 °F 38.4 °F 37.4 °F 76% 29.85 in 10.0 mi South 12.7 mph - N/A   Overcast
9:52 AM 46.0 °F 40.6 °F 37.0 °F 71% 29.86 in 10.0 mi SSE 11.5 mph - N/A   Overcast
10:52 AM 48.0 °F - 37.0 °F 66% 29.86 in 10.0 mi SSE 10.4 mph - N/A   Overcast
11:52 AM 51.1 °F - 37.0 °F 59% 29.88 in 10.0 mi SE 13.8 mph - N/A   Overcast
12:52 PM 51.1 °F - 37.0 °F 59% 29.90 in 10.0 mi SSE 12.7 mph - 0.00 in   Overcast
1:52 PM 50.0 °F - 37.0 °F 61% 29.91 in 10.0 mi South 8.1 mph - N/A   Overcast
2:52 PM 52.0 °F - 35.1 °F 53% 29.91 in 10.0 mi SSE 9.2 mph - N/A   Overcast
3:52 PM 53.1 °F - 34.0 °F 48% 29.91 in 10.0 mi South 11.5 mph - N/A   Overcast
4:52 PM 54.0 °F - 34.0 °F 47% 29.92 in 10.0 mi SE 16.1 mph 26.5 mph N/A   Scattered Clouds
5:52 PM 53.1 °F - 35.1 °F 50% 29.93 in 10.0 mi South 12.7 mph - N/A   Mostly Cloudy
6:52 PM 51.1 °F - 36.0 °F 56% 30.08 in 10.0 mi SE 12.7 mph - N/A   Overcast
7:52 PM 51.1 °F - 36.0 °F 56% 30.10 in 10.0 mi SSE 10.4 mph - N/A   Overcast
8:52 PM 48.9 °F - 39.9 °F 71% 30.12 in 10.0 mi SE 11.5 mph - 0.00 in   Overcast
9:52 PM 48.0 °F - 41.0 °F 77% 30.12 in 10.0 mi ESE 10.4 mph - 0.01 in   Overcast
10:52 PM 45.0 °F 40.6 °F 39.9 °F 82% 30.12 in 10.0 mi SE 8.1 mph - N/A   Clear
11:52 PM 43.0 °F 38.8 °F 39.0 °F 86% 30.13 in 10.0 mi ESE 6.9 mph - N/A   Clear